Weather History for Davenport, IA

Change the Weather History Date:

Friday, February 22, 2013

  Actual Average Record
Temperature  
Mean Temperature 27 °F 28 °F  
Max Temperature 31 °F 37 °F 64 °F (1984)
Min Temperature 23 °F 20 °F -4 °F (1963)
Degree Days  
Heating Degree Days 38 37  
Month to date heating degree days 867 879  
Since 1 July heating degree days 4563 4815  
Cooling Degree Days 0 0  
Month to date cooling degree days 0 0  
Year to date cooling degree days 0 0  
Moisture  
Dew Point 23 °F    
Average Humidity 88    
Maximum Humidity 100    
Minimum Humidity 75    
Precipitation  
Precipitation 0.04 in 0.06 in 0.70 in (1974)
Month to date precipitation 1.36 0.98  
Year to date precipitation 3.24 2.17  
Snow  
Snow 1.30 in - - ()
Month to date snowfall 4.2  
Since 1 July snowfall 12.7  
Snow Depth 3.00 in    
Sea Level Pressure  
Sea Level Pressure 29.86 in    
Wind  
Wind Speed 13 mph (South)    
Max Wind Speed 23 mph    
Max Gust Speed 28 mph    
Visibility 3 miles    
Events Fog , Snow    
T = Trace of Precipitation, MM = Missing Value Source: NWS Daily Summary

Daily Weather History Graph

Daily Weather History Graph

Search for Another Location

Airport:

Trip Planner

Search our weather history database for the weather conditions in past years. The results will help you decide how hot, cold, wet, or windy it might be!

Date:

Astronomy

Feb. 22, 2013 Rise Set
Actual Time 6:47 AM CST 5:44 PM CST
Civil Twilight 6:19 AM CST 6:12 PM CST
Nautical Twilight 5:47 AM CST 6:45 PM CST
Astronomical Twilight 5:14 AM CST 7:17 PM CST
Moon 2:54 PM CST 4:34 AM CST
Length of Visible Light 11h 53m
Length of Day
10h 57m
Waxing Gibbous, 90% of the Moon is Illuminated
Feb 22
Waxing Gibbous
Feb 25
Full
Mar 4
Last Quarter
Mar 11
New
Mar 19
First Quarter

Hourly Weather History & Observations

Time (CST) Temp. Windchill Dew Point Humidity Pressure Visibility Wind Dir Wind Speed Gust Speed Precip Events Conditions
12:02 AM 24.8 °F 11.1 °F 21.2 °F 86% 29.88 in 0.8 mi East 18.4 mph - 0.00 in Snow Light Snow
12:10 AM 24.8 °F 10.7 °F 21.2 °F 86% 29.88 in 1.0 mi East 19.6 mph 26.5 mph 0.00 in Snow Light Snow
12:52 AM 24.1 °F 10.1 °F 21.9 °F 91% 29.90 in 1.0 mi East 18.4 mph - 0.00 in Snow Light Snow
1:04 AM 24.8 °F 11.5 °F 21.2 °F 86% 29.87 in 2.0 mi East 17.3 mph - 0.00 in Snow Light Snow
1:27 AM 24.8 °F 11.5 °F 21.2 °F 86% 29.86 in 2.5 mi East 17.3 mph - 0.00 in Snow Light Snow
1:34 AM 24.8 °F 11.5 °F 21.2 °F 86% 29.86 in 4.0 mi East 17.3 mph - 0.00 in Snow Light Snow
1:52 AM 25.0 °F 12.2 °F 21.9 °F 88% 29.88 in 6.0 mi East 16.1 mph - 0.00 in   Overcast
2:52 AM 25.0 °F 13.1 °F 21.9 °F 88% 29.86 in 6.0 mi East 13.8 mph - N/A   Overcast
3:52 AM 25.0 °F 12.6 °F 21.9 °F 88% 29.83 in 5.0 mi East 15.0 mph - N/A   Overcast
4:11 AM 24.8 °F 12.9 °F 21.2 °F 86% 29.79 in 5.0 mi East 13.8 mph - N/A   Overcast
4:52 AM 25.0 °F 14.2 °F 23.0 °F 92% 29.81 in 4.0 mi ESE 11.5 mph - N/A   Overcast
5:23 AM 24.8 °F 14.0 °F 23.0 °F 93% 29.78 in 2.5 mi East 11.5 mph - N/A   Overcast
5:59 AM 24.8 °F 14.6 °F 23.0 °F 93% 29.78 in 1.8 mi East 10.4 mph - 0.00 in Snow Light Snow
6:38 AM 24.8 °F 14.0 °F 24.8 °F 100% 29.77 in 1.5 mi East 11.5 mph - 0.00 in Snow Light Snow
6:52 AM 25.0 °F 14.2 °F 23.0 °F 92% 29.80 in 1.2 mi East 11.5 mph - 0.00 in Snow Light Snow
7:02 AM 24.8 °F 14.0 °F 24.8 °F 100% 29.77 in 0.5 mi East 11.5 mph - 0.00 in Fog , Snow Light Snow
7:16 AM 24.8 °F 14.0 °F 24.8 °F 100% 29.78 in 0.5 mi East 11.5 mph - 0.01 in Fog , Snow Light Snow
7:52 AM 26.1 °F 16.8 °F 24.1 °F 92% 29.81 in 0.5 mi East 9.2 mph - 0.01 in Fog , Snow Light Snow
8:52 AM 26.1 °F 18.4 °F 24.1 °F 92% 29.82 in 0.8 mi ESE 6.9 mph - 0.01 in Snow Light Snow
9:04 AM 26.6 °F 20.0 °F 24.8 °F 93% 29.79 in 1.0 mi ESE 5.8 mph - 0.00 in Snow Light Snow
9:12 AM 26.6 °F 20.0 °F 24.8 °F 93% 29.79 in 1.2 mi ESE 5.8 mph - 0.00 in Snow Light Snow
9:52 AM 27.0 °F 23.0 °F 26.1 °F 96% 29.83 in 1.2 mi SSE 3.5 mph - 0.00 in Snow Light Snow
10:03 AM 28.4 °F - 26.6 °F 93% 29.80 in 1.5 mi Calm Calm - 0.00 in Snow Light Snow
10:25 AM 28.4 °F 24.6 °F 26.6 °F 93% 29.80 in 2.0 mi SSE 3.5 mph - 0.00 in   Overcast
10:47 AM 30.2 °F 22.6 °F 26.6 °F 86% 29.80 in 3.0 mi SW 8.1 mph - 0.00 in   Overcast
10:52 AM 30.0 °F 23.2 °F 27.0 °F 88% 29.83 in 4.0 mi SSW 6.9 mph - 0.00 in   Overcast
11:24 AM 30.2 °F 21.3 °F 26.6 °F 86% 29.81 in 6.0 mi WSW 10.4 mph - N/A   Overcast
11:52 AM 30.0 °F 19.5 °F 26.1 °F 85% 29.84 in 5.0 mi WSW 13.8 mph - N/A   Overcast
12:52 PM 30.0 °F 17.5 °F 25.0 °F 82% 29.85 in 5.0 mi WSW 19.6 mph - N/A   Haze
1:52 PM 28.9 °F 17.3 °F 24.1 °F 82% 29.87 in 4.0 mi West 16.1 mph - N/A   Haze
2:05 PM 28.4 °F 16.2 °F 24.8 °F 86% 29.84 in 4.0 mi WSW 17.3 mph - N/A   Haze
2:23 PM 30.2 °F 18.9 °F 24.8 °F 80% 29.84 in 4.0 mi WSW 16.1 mph - N/A   Haze
2:52 PM 28.9 °F 17.3 °F 23.0 °F 78% 29.88 in 5.0 mi West 16.1 mph - N/A   Haze
3:52 PM 28.9 °F 17.7 °F 23.0 °F 78% 29.89 in 4.0 mi WSW 15.0 mph - N/A   Haze
4:52 PM 28.0 °F 17.0 °F 21.9 °F 78% 29.91 in 4.0 mi WSW 13.8 mph - N/A   Haze
5:06 PM 28.4 °F 18.0 °F 21.2 °F 74% 29.88 in 2.0 mi WSW 12.7 mph - 0.00 in Snow Light Snow
5:19 PM 28.4 °F 16.6 °F 21.2 °F 74% 29.89 in 1.2 mi WSW 16.1 mph - 0.00 in Snow Light Snow
5:52 PM 27.0 °F 15.2 °F 23.0 °F 85% 29.93 in 1.2 mi WSW 15.0 mph - 0.00 in Snow Light Snow
6:02 PM 26.6 °F 14.7 °F 23.0 °F 86% 29.90 in 2.5 mi WSW 15.0 mph - 0.00 in Snow Light Snow
6:10 PM 26.6 °F 14.7 °F 23.0 °F 86% 29.91 in 1.8 mi WSW 15.0 mph - 0.00 in Snow Light Snow
6:35 PM 26.6 °F 15.2 °F 24.8 °F 93% 29.91 in 2.0 mi West 13.8 mph - 0.00 in Snow Light Snow
6:52 PM 27.0 °F 15.6 °F 23.0 °F 85% 29.94 in 3.0 mi West 13.8 mph - 0.00 in Snow Light Snow
7:52 PM 26.1 °F 12.7 °F 21.9 °F 84% 29.96 in 6.0 mi West 18.4 mph - 0.00 in   Overcast
8:52 PM 25.0 °F 12.6 °F 19.9 °F 81% 29.97 in 7.0 mi WSW 15.0 mph - N/A   Mostly Cloudy
9:23 PM 24.8 °F 12.9 °F 19.4 °F 80% 29.94 in 7.0 mi WSW 13.8 mph - N/A   Overcast
9:52 PM 23.0 °F 10.6 °F 19.0 °F 85% 29.98 in 7.0 mi WSW 13.8 mph - N/A   Overcast
10:52 PM 24.1 °F 10.6 °F 19.9 °F 84% 29.98 in 7.0 mi WSW 17.3 mph - N/A   Overcast
11:52 PM 24.1 °F 11.5 °F 19.0 °F 81% 29.97 in 7.0 mi West 15.0 mph - N/A   Overcast